Location: Newark
(7.0858°N, 171.3717°E)
Time: 20:06:12
(UTC+00:00)

N. Korean satellite - Pass Details

Date: 30 September 2021
Orbit: 450 x 495 km, 97.3° (Epoch: 21 October)

Event Time Altitude Azimuth Distance (km) Brightness Sun altitude
Rises 17:01:52 0° 28° (NNE) 2,555 10.6 -20.8°
Reaches altitude 10° 17:04:08 10° 40° (NE) 1,680 9.8 -20.3°
Maximum altitude 17:07:16 28° 100° (E) 954 8.8 -19.5°
Drops below altitude 10° 17:10:25 10° 160° (SSE) 1,689 9.5 -18.7°
Sets 17:12:42 0° 172° (S) 2,572 10.4 -18.1°
